Bogalusa, LA

6:58 AM CST on January 22, 2018 (GMT -0600)
Carr Memorial

Weather History for KBXA - October, 2012

Change the Weather History Date:

Thursday, October 4, 2012

  Actual Average Record
Temperature  
Mean Temperature 72 °F -  
Max Temperature 84 °F 83 °F 92 °F (2013)
Min Temperature 59 °F 57 °F 50 °F (2014)
Cooling Degree Days 6    
Growing Degree Days 22 (Base 50)    
Moisture  
Dew Point 62 °F    
Average Humidity 78    
Maximum Humidity 100    
Minimum Humidity 36    
Precipitation  
Precipitation 0.00 in - - ()
Sea Level Pressure  
Sea Level Pressure 30.19 in    
Wind  
Wind Speed 1 mph ()    
Max Wind Speed 6 mph    
Max Gust Speed -    
Visibility 7.9 miles    
Events Thunderstorm    
Averages and records for this station are not official NWS values.
T = Trace of Precipitation, MM = Missing Value Source: Averaged Metar Reports

Daily Weather History Graph

Daily Weather History Graph

Search for Another Location

Airport or City:

Trip Planner

Search our weather history database for the weather conditions in past years. The results will help you decide how hot, cold, wet, or windy it might be!

Date:

Astronomy

Oct. 04, 2012 Rise Set
Actual Time 6:55 AM CDT 6:40 PM CDT
Civil Twilight 6:31 AM CDT 7:04 PM CDT
Nautical Twilight 6:03 AM CDT 7:32 PM CDT
Astronomical Twilight 5:35 AM CDT 8:00 PM CDT
Moon 9:34 PM CDT (10/4) 10:54 AM CDT (10/4)
Length of Visible Light 12h 33m
Length of Day
11h 45m
Waning Gibbous, 82% of the Moon is Illuminated
Oct 4
Waning Gibbous
Oct 8
Last Quarter
Oct 15
New
Oct 21
First Quarter
Oct 29
Full

Hourly Weather History & Observations

Time (CDT) Temp. Heat Index Dew Point Humidity Pressure Visibility Wind Dir Wind Speed Gust Speed Precip Events Conditions
12:15 AM 63.7 °F - 63.7 °F 100% 30.15 in 4.0 mi Calm Calm - N/A   Clear
12:35 AM 63.1 °F - 63.1 °F 100% 30.15 in 5.0 mi Calm Calm - N/A   Clear
12:55 AM 63.9 °F - 63.9 °F 100% 30.15 in 5.0 mi Calm Calm - N/A   Clear
1:15 AM 63.5 °F - 63.5 °F 100% 30.15 in - Calm Calm - N/A   Unknown
1:35 AM 63.1 °F - 63.1 °F 100% 30.16 in - Calm Calm - N/A   Unknown
2:15 AM 61.7 °F - 61.7 °F 100% 30.16 in 4.0 mi Calm Calm - N/A   Mist
2:35 AM 61.7 °F - 61.7 °F 100% 30.16 in 1.2 mi Calm Calm - N/A   Mist
2:55 AM 61.2 °F - 61.2 °F 100% 30.16 in 5.0 mi Calm Calm - N/A   Mist
3:15 AM 60.8 °F - 60.8 °F 100% 30.16 in 7.0 mi North 3.5 mph - N/A   Unknown
3:35 AM 60.6 °F - 60.6 °F 100% 30.17 in 5.0 mi Calm Calm - N/A   Mist
3:55 AM 60.3 °F - 60.3 °F 100% 30.17 in 2.5 mi North 3.5 mph - N/A   Mist
4:35 AM 60.1 °F - 60.1 °F 100% 30.18 in 7.0 mi Calm Calm - N/A   Clear
4:55 AM 60.1 °F - 60.1 °F 100% 30.18 in 3.0 mi Calm Calm - N/A   Clear
5:15 AM 59.9 °F - 59.9 °F 100% 30.19 in 1.2 mi Calm Calm - N/A   Mist
5:35 AM 59.7 °F - 59.7 °F 100% 30.19 in 5.0 mi North 3.5 mph - N/A   Clear
5:55 AM 59.0 °F - 59.0 °F 100% 30.20 in 1.8 mi Calm Calm - N/A   Mist
6:15 AM 59.0 °F - 59.0 °F 100% 30.20 in 4.0 mi Calm Calm - N/A   Clear
6:35 AM 59.2 °F - 59.2 °F 100% 30.21 in 3.0 mi Calm Calm - N/A   Clear
6:55 AM 59.7 °F - 59.7 °F 100% 30.21 in 2.5 mi Calm Calm - N/A   Clear
7:15 AM 59.2 °F - 59.2 °F 100% 30.21 in 2.5 mi Calm Calm - N/A   Clear
7:35 AM 59.5 °F - 59.5 °F 100% 30.22 in 2.5 mi Calm Calm - N/A   Clear
7:55 AM 61.0 °F - 61.0 °F 100% 30.23 in 5.0 mi Calm Calm - N/A   Clear
8:15 AM 63.0 °F - 63.0 °F 100% 30.23 in 5.0 mi North 3.5 mph - N/A   Clear
8:35 AM 64.2 °F - 64.2 °F 100% 30.24 in 10.0 mi Calm Calm - N/A   Clear
9:15 AM 69.3 °F - 68.4 °F 97% 30.24 in 10.0 mi Calm Calm - N/A   Clear
9:35 AM 70.9 °F - 66.7 °F 87% 30.24 in 10.0 mi Calm Calm - N/A   Clear
9:55 AM 72.7 °F - 66.4 °F 81% 30.25 in 10.0 mi Calm Calm - N/A   Clear
10:15 AM 74.8 °F - 64.2 °F 69% 30.25 in 10.0 mi Calm Calm - N/A   Clear
10:35 AM 76.3 °F - 64.4 °F 67% 30.25 in 10.0 mi Calm Calm - N/A   Clear
10:55 AM 77.0 °F - 64.2 °F 65% 30.24 in 10.0 mi Calm Calm - N/A   Clear
11:15 AM 79.2 °F - 62.4 °F 56% 30.24 in 10.0 mi ESE 5.8 mph - N/A   Clear
11:35 AM 80.4 °F 81.2 °F 60.1 °F 50% 30.24 in 10.0 mi East 3.5 mph - N/A   Unknown
11:55 AM 80.1 °F 81.0 °F 60.3 °F 51% 30.23 in 10.0 mi ENE 3.5 mph - N/A   Unknown
12:15 PM 80.8 °F 81.4 °F 60.1 °F 49% 30.23 in 10.0 mi East 3.5 mph - N/A   Unknown
12:35 PM 82.6 °F 82.6 °F 59.4 °F 45% 30.22 in 10.0 mi East 3.5 mph - N/A   Unknown
12:55 PM 81.7 °F 81.9 °F 58.8 °F 46% 30.21 in 10.0 mi ENE 3.5 mph - N/A   Unknown
1:15 PM 82.6 °F 82.1 °F 56.7 °F 41% 30.20 in 10.0 mi ESE 5.8 mph - N/A   Unknown
1:35 PM 82.9 °F 82.4 °F 56.7 °F 41% 30.20 in 10.0 mi Calm Calm - N/A   Clear
1:55 PM 83.3 °F 82.5 °F 55.6 °F 39% 30.19 in 10.0 mi Calm Calm - N/A   Clear
2:15 PM 84.0 °F 83.0 °F 56.1 °F 38% 30.18 in 10.0 mi ESE 3.5 mph - N/A   Clear
2:35 PM 83.7 °F 82.7 °F 55.6 °F 38% 30.18 in 10.0 mi SSW 3.5 mph - N/A   Clear
2:55 PM 83.8 °F 82.7 °F 55.0 °F 37% 30.18 in 10.0 mi Calm Calm - N/A   Clear
3:15 PM 84.4 °F 83.1 °F 54.5 °F 36% 30.18 in 10.0 mi SE 4.6 mph - N/A   Clear
3:35 PM 84.4 °F 83.4 °F 56.1 °F 38% 30.18 in 10.0 mi SE 3.5 mph - N/A   Clear
3:55 PM 84.2 °F 82.9 °F 54.3 °F 36% 30.17 in 10.0 mi Calm Calm - N/A   Clear
4:15 PM 83.8 °F 82.7 °F 54.9 °F 37% 30.17 in 10.0 mi WNW 3.5 mph - N/A Thunderstorm Clear
4:35 PM 84.2 °F 83.3 °F 57.0 °F 39% 30.16 in 10.0 mi NNE 3.5 mph - N/A   Clear
4:55 PM 84.2 °F 83.2 °F 55.9 °F 38% 30.16 in 10.0 mi NNE 3.5 mph - N/A   Clear
5:15 PM 84.2 °F 83.0 °F 55.0 °F 37% 30.16 in 10.0 mi East 3.5 mph - N/A   Clear
5:35 PM 83.3 °F 82.6 °F 56.3 °F 40% 30.16 in 10.0 mi Calm Calm - N/A   Clear
5:55 PM 81.5 °F 81.8 °F 59.4 °F 47% 30.16 in 10.0 mi NNE 3.5 mph - N/A   Clear
6:15 PM 79.0 °F - 63.9 °F 60% 30.16 in 10.0 mi Calm Calm - N/A   Clear
6:35 PM 75.4 °F - 67.1 °F 75% 30.16 in 10.0 mi Calm Calm - N/A   Clear
6:55 PM 72.9 °F - 64.9 °F 76% 30.16 in 10.0 mi Calm Calm - N/A   Clear
7:15 PM 70.9 °F - 68.7 °F 93% 30.16 in 10.0 mi Calm Calm - N/A   Clear
7:35 PM 70.7 °F - 66.9 °F 88% 30.16 in 10.0 mi Calm Calm - N/A   Clear
7:55 PM 70.2 °F - 70.2 °F 100% 30.16 in 10.0 mi Calm Calm - N/A   Clear
8:15 PM 69.6 °F - 69.6 °F 100% 30.17 in 10.0 mi Calm Calm - N/A   Unknown
8:35 PM 68.2 °F - 68.2 °F 100% 30.17 in 10.0 mi Calm Calm - N/A   Unknown
8:55 PM 68.2 °F - 68.2 °F 100% 30.17 in 10.0 mi Calm Calm - N/A   Clear
9:15 PM 68.0 °F - 68.0 °F 100% 30.18 in 10.0 mi Calm Calm - N/A   Clear
9:35 PM 66.2 °F - 66.2 °F 100% 30.18 in 10.0 mi Calm Calm - N/A   Clear
9:55 PM 66.7 °F - 66.7 °F 100% 30.18 in 10.0 mi Calm Calm - N/A   Clear
10:15 PM 67.1 °F - 67.1 °F 100% 30.18 in 10.0 mi Calm Calm - N/A   Clear
10:55 PM 64.9 °F - 64.9 °F 100% 30.18 in 10.0 mi North 3.5 mph - N/A   Clear
11:15 PM 64.4 °F - 64.4 °F 100% 30.18 in 5.0 mi North 3.5 mph - N/A   Clear
11:35 PM 64.6 °F - 64.6 °F 100% 30.18 in 5.0 mi Calm Calm - N/A   Clear
11:55 PM 63.3 °F - 63.3 °F 100% 30.17 in 7.0 mi Calm Calm - N/A   Clear